GW0220 Weather Reports


time (UTC)temp
F
wind
direction
speed
knots
gust
knots
rain 1hr
in
rain 24hr
in
rain mn
in
humidity
%
barometer
mb
20260505223027 56 45 5.2 7.0 0.00 0.13 0.13 92 1006.1
20260505222523 56 14 6.1 7.8 0.00 0.13 0.13 92 1005.6
20260505222019 56 22 3.5 6.1 0.00 0.13 0.13 92 1006.3
20260505221517 57 16 4.3 9.6 0.00 0.13 0.13 92 1006.6
20260505221014 57 8 4.3 6.1 0.00 0.13 0.13 92 1006.8
20260505220511 57 354 2.6 5.2 0.00 0.13 0.13 92 1006.8
20260505220009 57 319 6.1 8.7 0.00 0.13 0.13 92 1006.6
20260505215507 58 328 2.6 6.1 0.00 0.13 0.13 91 1006.3
20260505215004 58 53 0.9 6.1 0.00 0.13 0.13 91 1006.1
20260505214502 58 44 5.2 7.8 0.00 0.13 0.13 91 1005.8
20260505213958 58 1 3.5 7.8 0.00 0.13 0.13 91 1005.8
20260505213456 58 20 2.6 7.8 0.00 0.13 0.13 91 1005.7
20260505212952 59 32 3.5 7.0 0.00 0.13 0.13 91 1005.4
20260505212449 59 338 2.6 7.8 0.00 0.13 0.13 90 1005.6
20260505211945 59 307 7.0 11.3 0.00 0.13 0.13 90 1005.7
20260505211443 59 45 3.5 8.7 0.00 0.13 0.13 90 1005.8
20260505210939 60 341 7.8 8.7 0.00 0.13 0.13 90 1006.0
20260505210437 60 60 1.7 7.0 0.00 0.13 0.13 90 1005.9
20260505205933 60 347 0.9 5.2 0.00 0.13 0.13 90 1005.9
20260505205432 61 256 2.6 6.1 0.00 0.13 0.13 90 1005.8
20260505204928 61 333 4.3 6.1 0.00 0.13 0.13 89 1005.8
20260505204426 62 303 2.6 14.8 0.00 0.13 0.13 88 1005.5
20260505203923 63 332 5.2 6.1 0.00 0.13 0.13 87 1005.4
20260505203419 63 45 3.5 6.1 0.00 0.13 0.13 87 1005.2
20260505202916 63 44 0.9 4.3 0.00 0.13 0.13 89 1005.2
20260505202412 63 35 2.6 7.8 0.00 0.13 0.13 89 1005.3
20260505201909 62 65 3.5 6.1 0.00 0.13 0.13 89 1005.6
20260505201406 62 349 3.5 6.1 0.00 0.13 0.13 89 1005.4
20260505200904 62 336 0.9 7.0 0.00 0.13 0.13 89 1005.4
20260505200401 62 4 2.6 6.1 0.00 0.13 0.13 89 1005.4
20260505195856 62 335 3.5 8.7 0.00 0.13 0.13 89 1005.6
20260505195354 62 348 3.5 7.8 0.00 0.13 0.13 89 1005.6
20260505194851 62 315 3.5 7.0 0.00 0.13 0.13 89 1005.7
20260505194348 62 324 0.9 6.1 0.00 0.13 0.13 89 1005.9
20260505193843 64 296 1.7 5.2 0.00 0.13 0.13 86 1005.7
20260505193341 73 293 6.1 7.8 0.00 0.13 0.13 83 1005.8
20260505192838 73 183 2.6 4.3 0.00 0.13 0.13 84 1005.5
20260505192337 73 192 4.3 7.0 0.00 0.13 0.13 84 1005.4
20260505191834 74 168 2.6 7.0 0.00 0.13 0.13 83 1005.3
20260505191333 74 198 4.3 7.8 0.00 0.13 0.13 82 1005.2
20260505190829 75 221 6.1 7.8 0.00 0.13 0.13 82 1005.2
20260505190324 74 188 5.2 7.0 0.00 0.13 0.13 82 1004.9
20260505185820 75 174 5.2 7.0 0.00 0.13 0.13 83 1004.8
20260505185317 74 189 6.1 7.8 0.00 0.13 0.13 83 1004.6
20260505184813 73 220 6.1 7.8 0.00 0.13 0.13 84 1004.7
20260505184310 73 170 7.8 8.7 0.00 0.13 0.13 83 1004.8
20260505183807 73 163 6.1 7.8 0.00 0.13 0.13 83 1004.9
20260505183304 73 190 6.1 7.8 0.00 0.13 0.13 83 1005.1
20260505182801 73 151 3.5 5.2 0.00 0.13 0.13 83 1005.0
20260505182257 73 199 0.9 7.0 0.00 0.13 0.13 85 1004.9
20260505181754 73 120 3.5 5.2 0.00 0.13 0.13 85 1005.0
20260505181251 72 155 4.3 7.8 0.00 0.13 0.13 85 1004.9
20260505180748 72 148 4.3 7.0 0.00 0.13 0.13 86 1004.9
20260505180244 71 180 7.8 8.7 0.00 0.13 0.13 87 1005.1
20260505175741 71 188 6.1 13.0 0.00 0.13 0.13 86 1005.2
20260505175237 71 158 7.8 9.6 0.00 0.13 0.13 86 1005.2
20260505174734 71 131 5.2 9.6 0.00 0.13 0.13 87 1005.1
20260505174231 71 156 7.0 9.6 0.00 0.13 0.13 86 1005.0
20260505173727 70 168 3.5 7.0 0.00 0.13 0.13 88 1005.1
20260505173224 70 183 5.2 8.7 0.00 0.13 0.13 88 1005.1
20260505172721 70 182 6.1 8.7 0.00 0.13 0.13 88 1005.1
20260505172218 71 166 7.0 8.7 0.00 0.13 0.13 87 1005.2
20260505171718 71 176 7.0 7.8 0.00 0.13 0.13 88 1005.3
20260505171215 70 162 8.7 13.0 0.00 0.13 0.13 87 1005.0
20260505170712 69 144 2.6 8.7 0.00 0.13 0.13 89 1005.1
20260505170209 69 151 7.8 9.6 0.00 0.13 0.13 89 1005.1
20260505165704 69 147 7.8 9.6 0.00 0.13 0.13 89 1005.2
20260505165200 69 140 5.2 9.6 0.00 0.13 0.13 88 1005.3
20260505164655 69 164 4.3 9.6 0.00 0.13 0.13 88 1005.3
20260505164153 69 169 7.0 9.6 0.00 0.13 0.13 88 1005.2
20260505163651 69 171 7.0 11.3 0.00 0.13 0.13 89 1005.3
20260505163149 69 157 7.0 8.7 0.00 0.13 0.13 88 1005.1
20260505162646 69 144 6.1 9.6 0.00 0.13 0.13 88 1005.3
20260505162144 69 181 5.2 7.8 0.00 0.13 0.13 88 1005.3
20260505161640 69 132 9.6 12.2 0.00 0.13 0.13 88 1005.3
20260505161138 69 135 7.8 12.2 0.00 0.13 0.13 88 1004.9
20260505160636 69 159 9.6 13.0 0.00 0.13 0.13 87 1004.9
20260505160133 69 186 10.4 15.6 0.00 0.13 0.13 87 1004.9
20260505153112 69 169 6.1 15.6 0.00 0.13 0.13 87 1004.6
20260505152609 69 171 7.0 13.0 0.00 0.13 0.13 87 1004.4
20260505152104 69 168 8.7 13.9 0.00 0.13 0.13 87 1004.6
20260505151600 68 141 8.7 11.3 0.00 0.13 0.13 88 1004.7
20260505151058 68 150 6.1 11.3 0.00 0.13 0.13 89 1004.8
20260505150553 68 184 8.7 14.8 0.00 0.13 0.13 88 1004.9
20260505140519 66 172 1.7 4.3 0.00 0.13 0.13 90 1005.3
20260505124932 64 168 2.6 6.1 0.00 0.13 0.13 92 1005.6
20260505124429 64 138 1.7 5.2 0.00 0.13 0.13 92 1005.4
20260505123925 64 69 0.9 6.1 0.00 0.13 0.13 92 1005.4
20260505123422 64 78 1.7 4.3 0.00 0.13 0.13 92 1005.1
20260505122918 64 65 1.7 4.3 0.00 0.13 0.13 92 1005.2
20260505122416 64 125 0.0 5.2 0.00 0.13 0.13 92 1005.7
20260505121912 64 29 2.6 4.3 0.00 0.13 0.13 92 1005.5
20260505121409 64 73 0.0 2.6 0.00 0.13 0.13 92 1005.4
20260505120905 63 94 0.9 4.3 0.00 0.13 0.13 92 1005.3
20260505120402 64 115 0.9 2.6 0.00 0.13 0.13 92 1005.1
20260505115900 64 26 0.0 1.7 0.00 0.13 0.13 92 1005.1
20260505115357 63 51 1.7 4.3 0.00 0.13 0.13 92 1005.3
20260505114855 63 65 0.9 1.7 0.00 0.13 0.13 92 1005.2
20260505114351 63 19 0.9 1.7 0.00 0.13 0.13 92 1005.3
20260505113848 63 34 0.0 1.7 0.00 0.13 0.13 92 1005.0
20260505113344 63 44 0.9 7.0 0.00 0.13 0.13 92 1005.0
20260505112840 63 42 2.6 6.1 0.00 0.13 0.13 92 1004.9
20260505112338 63 57 0.9 7.8 0.00 0.13 0.13 93 1004.9
20260505111833 63 57 0.9 1.7 0.00 0.13 0.13 93 1004.8
20260505111329 63 106 2.6 4.3 0.00 0.13 0.13 93 1004.8
20260505110825 63 53 1.7 2.6 0.00 0.13 0.13 94 1004.6
20260505110323 63 49 0.9 4.3 0.00 0.13 0.13 94 1004.6
20260505101757 63 79 1.7 7.0 0.00 0.13 0.13 93 1004.6
20260505101253 63 46 4.3 6.1 0.00 0.13 0.13 93 1004.6
20260505100749 63 44 3.5 7.8 0.00 0.13 0.13 93 1004.6
20260505100246 63 45 0.0 4.3 0.00 0.13 0.13 92 1004.7
20260505095741 63 61 5.2 8.7 0.00 0.13 0.13 92 1004.9
20260505095240 63 18 2.6 5.2 0.00 0.13 0.13 92 1004.9
20260505094735 63 42 1.7 4.3 0.00 0.13 0.13 92 1004.8
20260505094232 63 37 0.9 1.7 0.00 0.13 0.13 92 1004.9
20260505093728 63 64 0.9 2.6 0.00 0.13 0.13 92 1005.1
20260505093226 63 52 1.7 5.2 0.00 0.13 0.13 93 1004.6
20260505092722 63 63 0.9 2.6 0.00 0.13 0.13 93 1004.7
20260505092221 63 352 0.9 0.9 0.00 0.13 0.13 93 1005.0
20260505091718 63 357 0.0 0.9 0.00 0.13 0.13 93 1005.0
20260505091216 63 4 0.9 0.9 0.00 0.13 0.13 92 1005.2
20260505090713 63 32 0.9 0.9 0.00 0.13 0.13 92 1005.1
20260505090211 63 43 1.7 1.7 0.00 0.13 0.13 92 1004.9
20260505085708 63 1 0.0 1.7 0.00 0.13 0.13 92 1004.8
20260505085206 63 36 0.9 2.6 0.00 0.13 0.13 92 1004.9
20260505084703 63 107 1.7 2.6 0.00 0.13 0.13 93 1005.0
20260505084203 63 161 1.7 2.6 0.00 0.13 0.13 93 1005.1
20260505083659 63 197 0.9 1.7 0.00 0.13 0.13 92 1005.1
20260505083155 63 158 1.7 4.3 0.00 0.13 0.13 92 1005.1
20260505082651 63 2 0.9 1.7 0.00 0.13 0.13 92 1005.2
20260505082148 63 31 0.9 1.7 0.00 0.13 0.13 91 1005.2
20260505081644 63 8 0.0 0.0 0.00 0.13 0.13 90 1005.0
20260505081142 63 30 1.7 5.2 0.00 0.13 0.13 89 1005.1
20260505080639 64 317 2.6 4.3 0.00 0.13 0.13 87 1005.1
20260505080135 64 161 0.9 6.1 0.00 0.13 0.13 85 1004.5
20260505075631 64 194 4.3 6.1 0.00 0.13 0.13 85 1004.4
20260505075128 64 184 2.6 4.3 0.00 0.13 0.13 85 1004.3
20260505074625 64 238 1.7 6.1 0.00 0.13 0.13 84 1003.7
20260505074122 64 183 5.2 7.8 0.00 0.13 0.13 84 1003.3
20260505073620 64 173 7.8 9.6 0.00 0.13 0.13 85 1003.2
20260505073118 65 169 5.2 11.3 0.00 0.13 0.13 83 1003.0
20260505072613 65 171 7.8 13.0 0.00 0.13 0.13 83 1003.2
20260505072110 65 123 9.6 11.3 0.00 0.13 0.13 83 1003.2
20260505071605 65 174 7.8 14.8 0.00 0.13 0.13 82 1003.4
20260505071103 65 156 10.4 13.9 0.00 0.13 0.13 83 1003.6
20260505070600 66 174 9.6 12.2 0.00 0.13 0.13 82 1003.6
20260505070056 65 145 9.6 13.9 0.00 0.13 0.13 83 1004.3
20260505065552 63 165 9.6 17.4 0.00 0.13 0.13 88 1004.3
20260505065049 63 169 11.3 13.9 0.00 0.13 0.13 91 1004.4
20260505064546 63 171 7.8 11.3 0.19 0.13 0.13 92 1004.8
20260505064045 64 171 7.8 12.2 0.12 0.12 0.12 93 1004.3
20260505063542 64 152 4.3 7.8 0.00 0.10 0.10 86 1004.6
20260505063037 64 162 7.8 12.2 0.00 0.10 0.10 86 1004.6
20260505062534 64 153 10.4 12.2 0.00 0.10 0.10 87 1004.7
20260505062031 64 168 6.1 7.8 0.00 0.10 0.10 88 1004.8
20260505061529 63 168 9.6 14.8 0.00 0.10 0.10 89 1004.7
20260505061027 63 165 7.8 13.9 0.12 0.10 0.10 89 1005.1
20260505060524 64 170 10.4 17.4 0.07 0.09 0.09 87 1005.2
20260505060020 64 186 4.3 11.3 0.00 0.08 0.08 86 1005.2
20260505055516 64 198 6.1 7.0 0.05 0.08 0.08 86 1005.0
20260505055013 64 171 8.7 11.3 0.31 0.08 0.08 85 1005.1
20260505054510 65 180 6.1 11.3 0.38 0.07 0.07 83 1004.8
20260505054008 67 199 12.2 21.7 0.17 0.03 0.03 77 1005.5
20260505053505 68 189 7.0 14.8 0.00 0.00 0.00 73 1004.7
20260505053002 68 170 16.5 20.0 0.00 0.00 0.00 71 1004.7
20260505052459 67 209 11.3 18.2 0.00 0.00 0.00 74 1004.7
20260505051956 67 170 12.2 20.0 0.00 0.00 0.00 75 1004.6
20260505051452 68 156 10.4 13.0 0.00 0.00 0.00 71 1004.8
20260505050951 68 184 7.0 8.7 0.00 0.00 0.00 71 1005.2
20260505050449 68 189 8.7 13.9 0.00 0.00 0.00 71 1005.1
20260505041416 68 172 5.2 7.0 0.00 0.00 0.00 71 1006.0
20260505040913 68 161 4.3 8.7 0.00 0.00 0.00 70 1006.2
20260505040411 68 173 6.1 8.7 0.00 0.00 0.00 70 1006.3
20260505035908 68 173 6.1 11.3 0.00 0.00 0.00 70 1006.1
20260505035404 68 180 5.2 8.7 0.00 0.00 0.00 70 1006.6
20260505034901 67 181 6.1 8.7 0.00 0.00 0.00 71 1006.5
20260505034357 68 172 4.3 6.1 0.00 0.00 0.00 71 1006.6
20260505033855 68 130 6.1 9.6 0.00 0.00 0.00 71 1006.5
20260505033351 68 185 5.2 11.3 0.00 0.00 0.00 70 1006.5
20260505032850 68 187 3.5 7.0 0.00 0.00 0.00 71 1006.5
20260505032346 68 152 7.0 11.3 0.00 0.00 0.00 70 1006.5
20260505031843 67 195 3.5 5.2 0.00 0.00 0.00 71 1006.7
20260505031339 68 200 4.3 6.1 0.00 0.00 0.00 71 1006.6
20260505030837 68 179 3.5 8.7 0.00 0.00 0.00 71 1006.7
20260505030332 68 174 6.1 7.0 0.00 0.00 0.00 70 1006.7
20260505025828 68 181 4.3 7.0 0.00 0.00 0.00 70 1006.8
20260505025326 68 168 2.6 6.1 0.00 0.00 0.00 70 1006.6
20260505024824 68 191 5.2 8.7 0.00 0.00 0.00 70 1006.4
20260505024322 69 177 6.1 7.0 0.00 0.00 0.00 69 1006.6
20260505023819 69 182 5.2 8.7 0.00 0.00 0.00 70 1006.6
20260505023315 68 175 5.2 7.0 0.00 0.00 0.00 70 1006.6
20260505022813 68 170 4.3 7.8 0.00 0.00 0.00 70 1006.6
20260505022310 68 184 4.3 5.2 0.00 0.00 0.00 71 1006.9
20260505021807 69 211 5.2 7.0 0.00 0.00 0.00 70 1006.7
20260505021303 69 195 5.2 7.8 0.00 0.00 0.00 70 1006.7
20260505020759 69 169 4.3 7.8 0.00 0.00 0.00 70 1006.5
20260505020255 69 153 3.5 6.1 0.00 0.00 0.00 70 1006.6
20260505015752 69 175 4.3 6.1 0.00 0.00 0.00 70 1006.5
20260505015249 69 176 2.6 6.1 0.00 0.00 0.00 70 1006.6
20260505014746 69 187 4.3 6.1 0.00 0.00 0.00 70 1006.4
20260505014243 69 182 2.6 7.0 0.00 0.00 0.00 71 1006.4
20260505013739 69 190 2.6 6.1 0.00 0.00 0.00 71 1006.5
20260505013237 69 193 3.5 4.3 0.00 0.00 0.00 70 1006.4
20260505012735 70 189 2.6 2.6 0.00 0.00 0.00 70 1006.5
20260505012232 70 198 5.2 5.2 0.00 0.00 0.00 69 1006.3
20260505011728 70 189 6.1 7.0 0.00 0.00 0.00 68 1006.0
20260505011225 70 182 4.3 6.1 0.00 0.00 0.00 68 1006.1
20260505010721 71 202 2.6 4.3 0.00 0.00 0.00 68 1005.8
20260505010217 71 182 3.5 7.8 0.00 0.00 0.00 67 1005.9
20260505005714 71 190 5.2 7.0 0.00 0.00 0.00 67 1005.9
20260505005211 71 184 5.2 8.7 0.00 0.00 0.00 66 1005.6
20260505004708 71 191 3.5 7.8 0.00 0.00 0.00 66 1005.5
20260505004204 71 190 4.3 6.1 0.00 0.00 0.00 66 1005.7
20260505003702 72 172 8.7 9.6 0.00 0.00 0.00 66 1005.5
20260505003200 72 204 7.8 7.8 0.00 0.00 0.00 65 1005.6
20260505002655 72 195 7.8 11.3 0.00 0.00 0.00 65 1005.6
20260505002153 72 198 6.1 12.2 0.00 0.00 0.00 64 1005.5
20260505001650 72 174 5.2 7.0 0.00 0.00 0.00 65 1005.7
20260505001148 73 167 6.1 7.8 0.00 0.00 0.00 64 1005.7
20260505000644 73 192 4.3 7.8 0.00 0.00 0.00 65 1005.8
20260505000143 73 169 6.1 7.8 0.00 0.00 0.00 63 1005.8
20260504235638 73 176 5.2 7.8 0.00 0.00 0.00 64 1006.0
20260504235135 73 175 4.3 6.1 0.00 0.00 0.00 64 1006.0
20260504234633 73 197 6.1 7.8 0.00 0.00 0.00 63 1005.7
20260504234130 73 184 6.1 9.6 0.00 0.00 0.00 62 1005.9
20260504233625 73 188 4.3 9.6 0.00 0.00 0.00 63 1005.8
20260504233121 74 178 4.3 11.3 0.00 0.00 0.00 62 1006.0
20260504232620 74 170 6.1 7.8 0.00 0.00 0.00 62 1005.9
20260504232116 74 174 6.1 7.0 0.00 0.00 0.00 62 1006.0
20260504231613 74 172 7.8 11.3 0.00 0.00 0.00 61 1006.1
20260504231109 74 182 6.1 7.8 0.00 0.00 0.00 60 1006.1
20260504230605 74 164 5.2 8.7 0.00 0.00 0.00 62 1005.9
20260504230104 74 196 7.8 8.7 0.00 0.00 0.00 60 1006.2
20260504225602 74 177 7.8 9.6 0.00 0.00 0.00 60 1006.0
20260504225058 75 176 6.1 8.7 0.00 0.00 0.00 60 1005.9
20260504224555 75 186 7.8 13.0 0.00 0.00 0.00 59 1006.0
20260504224052 75 186 7.0 9.6 0.00 0.00 0.00 60 1005.9
20260504223549 75 195 8.7 14.8 0.00 0.00 0.00 58 1006.1